Marshfield, WI

7:07 AM CST on November 17, 2019 (GMT -0600)
Marshfield Municipal

Weather History for KMFI - September, 2019

Change the Weather History Date:

Thursday, September 26, 2019

  Actual Average Record
Temperature  
Mean Temperature 54 °F -  
Max Temperature 64 °F 66 °F 85 °F (1923)
Min Temperature 45 °F 42 °F 24 °F (1926)
Degree Days  
Heating Degree Days 10    
Growing Degree Days 4 (Base 50)    
Moisture  
Dew Point 44 °F    
Average Humidity 68    
Maximum Humidity 86    
Minimum Humidity 45    
Precipitation  
Precipitation 0.00 in - - ()
Sea Level Pressure  
Sea Level Pressure 29.86 in    
Wind  
Wind Speed 7 mph (WSW)    
Max Wind Speed 14 mph    
Max Gust Speed 24 mph    
Visibility 10 miles    
Events      
Averages and records for this station are not official NWS values.
T = Trace of Precipitation, MM = Missing Value Source: NWS Daily Summary

Daily Weather History Graph

Daily Weather History Graph

Search for Another Location

Airport or City:

Astronomy

Sep. 26, 2019 Rise Set
Actual Time 6:52 AM CDT 6:51 PM CDT
Civil Twilight 6:23 AM CDT 7:20 PM CDT
Nautical Twilight 5:49 AM CDT 7:54 PM CDT
Astronomical Twilight 5:14 AM CDT 8:28 PM CDT
Moon 3:48 AM CDT (9/26) 6:12 PM CDT (9/26)
Length of Visible Light 12h 56m
Length of Day
11h 58m
Waning Crescent, 6% of the Moon is Illuminated
Sep 26
Waning Crescent
Sep 28
New
Oct 5
First Quarter
Oct 13
Full
Oct 21
Last Quarter

Hourly Weather History & Observations

Time (CDT) Temp. Windchill Dew Point Humidity Pressure Visibility Wind Dir Wind Speed Gust Speed Precip Events Conditions
12:54 AM 48.0 °F - 42.1 °F 80% 29.83 in 10.0 mi West 5.8 mph - N/A   Clear
1:54 AM 46.9 °F - 42.1 °F 83% 29.83 in 10.0 mi West 4.6 mph - N/A   Mostly Cloudy
2:54 AM 46.9 °F - 42.1 °F 83% 29.83 in 10.0 mi West 6.9 mph - N/A   Clear
3:54 AM 46.9 °F - 42.1 °F 83% 29.83 in 10.0 mi West 5.8 mph - N/A   Partly Cloudy
4:54 AM 46.0 °F 42.5 °F 42.1 °F 86% 29.84 in 10.0 mi West 6.9 mph - N/A   Clear
5:54 AM 46.0 °F 42.5 °F 41.0 °F 83% 29.86 in 10.0 mi West 6.9 mph - N/A   Clear
6:54 AM 45.0 °F 41.8 °F 41.0 °F 86% 29.88 in 10.0 mi West 5.8 mph - N/A   Clear
7:54 AM 46.9 °F - 43.0 °F 86% 29.90 in 10.0 mi West 6.9 mph - N/A   Clear
8:54 AM 50.0 °F - 44.1 °F 80% 29.92 in 10.0 mi WSW 9.2 mph - N/A   Clear
9:54 AM 55.0 °F - 45.0 °F 69% 29.93 in 10.0 mi West 10.4 mph - N/A   Clear
10:54 AM 57.9 °F - 44.1 °F 60% 29.93 in 10.0 mi West 9.2 mph - N/A   Clear
11:54 AM 61.0 °F - 43.0 °F 52% 29.92 in 10.0 mi West 10.4 mph 19.6 mph N/A   Clear
12:54 PM 64.0 °F - 43.0 °F 46% 29.92 in 10.0 mi West 11.5 mph 20.7 mph N/A   Clear
1:54 PM 63.0 °F - 42.1 °F 46% 29.90 in 10.0 mi West 11.5 mph 24.2 mph N/A   Clear
2:54 PM 64.0 °F - 42.1 °F 45% 29.90 in 10.0 mi West 13.8 mph 23.0 mph N/A   Clear
3:54 PM 64.9 °F - 43.0 °F 45% 29.87 in 10.0 mi West 10.4 mph - N/A   Clear
4:54 PM 63.0 °F - 44.1 °F 50% 29.86 in 10.0 mi WSW 9.2 mph - N/A   Clear
5:54 PM 61.0 °F - 45.0 °F 56% 29.86 in 10.0 mi WSW 5.8 mph - N/A   Clear
6:54 PM 57.9 °F - 46.0 °F 65% 29.85 in 10.0 mi South 3.5 mph - N/A   Clear
7:54 PM 55.9 °F - 46.9 °F 72% 29.84 in 10.0 mi SSW 5.8 mph - N/A   Overcast
8:54 PM 55.0 °F - 48.0 °F 77% 29.84 in 10.0 mi South 5.8 mph - N/A   Overcast
9:54 PM 57.0 °F - 46.0 °F 67% 29.81 in 10.0 mi South 5.8 mph - N/A   Overcast
10:54 PM 55.9 °F - 46.9 °F 72% 29.80 in 10.0 mi South 8.1 mph - N/A   Overcast
11:54 PM 57.0 °F - 46.9 °F 69% 29.79 in 10.0 mi South 5.8 mph - 0.00 in   Overcast